sat.trackr.live / text

‹ back to catalog

STARLINK-34228

NORAD 64171 · 2025-113B

PAYLOAD ACTIVE UNKNOWN

§ Identity

Operator
Country
US
Launch date
2025-05-28
Launch site
AFETR
Launch vehicle
Mass (kg)
RCS (m²)

Purposes: comms

External: N2YO · Heavens-Above · Gunter

§ Orbital elements

Epoch: 2026-05-25T02:38:40.083360Z

Period
94.01 min
Inclination
53.1579°
Eccentricity
0.0001027
Mean motion
15.31717423 rev/d
Perigee alt
470.0 km
Apogee alt
471.4 km
Semi-major
6,848.8 km
B*
7.8381e-4
RAAN
95.5852°
Arg perigee
95.8550°
Mean anomaly
264.2569°
Rev number
5,677

§ Raw data

STARLINK-342281 64171U 25113B   26145.11018615  .00024049  00000+0  78381-3 0  99902 64171  53.1579  95.5852 0001027  95.8550 264.2569 15.31717423 56770

JSON: /api/v1/satellites/64171 · /tle

For live sub-satellite position, see the globe view (requires WebGL).

§ Visibility from observer

Set your observer location to see the next 7 days of passes ≥ 10°. The values pass through the URL so the page stays shareable.

No JS? Fill the form by hand. The geolocation button needs JavaScript.